SCP
0 0 0 0 0 0 0 0 0 0 0 0 0 0 0 0 0 0 0 0 0 0 0 0 0 0 0 0 0 0 0 0 0 0 0 0 0 0 0 0 0 0 0 0
0 0 0 0 0 0 0 0 0 0 0 0 0 0 0 0 0 0 0 0 0 0 0 0 0 0 0 0 0 0 0 0 0 0 0 0 0 0 0 0 0 0 0 0
0 0 0 0 0 0 0 0 0 0 0 0 0 0 0 0 0 0 0 0 0 0 0 0 0 0 0 0 0 0 0 0 0 0 0 0 0 0 0 0 0 0 0 0
0 0 0 0 0 0 0 0 0 0 0 0 0 0 0 0 0 0 0 0 0 0 0 0 0 0 0 0 0 0 0 0 0 0 0 0 0 0 0 0 0 0 0 0
0 0 0 0 0 0 0 0 0 0 0 0 0 0 0 0 0 0 0 0 0 0 0 0 0 0 0 0 0 0 0 0 0 0 0 0 0 0 0 0 0 0 0 0
0 0 0 0 0 0 0 0 0 0 0 0 0 0 0 0 0 0 0 0 0 0 0 0 0 0 0 0 0 0 0 0 0 0 0 0 0 0 0 0 0 0 0 0
0 0 0 0 0 0 0 0 0 0 0 0 0 0 0 0 0 0 0 0 0 0 0 0 0 0 0 0 0 0 0 0 0 0 0 0 0 0 0 0 0 0 0 0
0 0 0 0 0 0 0 0 0 0 0 0 0 0 0 0 0 0 0 0 0 0 0 0 0 0 0 0 0 0 0 0 0 0 0 0 0 0 0 0 0 0 0 0
0 0 0 0 0 0 0 0 0 0 0 0 0 0 0 0 0 0 0 0 0 0 0 0 0 0 0 0 0 0 0 0 0 0 0 0 0 0 0 0 0 0 0 0
0 0 0 0 0 0 0 0 0 0 0 0 0 0 0 0 0 0 0 0 0 0 0 0 0 0 0 0 0 0 0 0 0 0 0 0 0 0 0 0 0 0 0 0
0 0 0 0 0 0 0 0 0 0 0 0 0 0 0 0 0 0 0 0 0 0 0 0 0 0 0 0 0 0 0 0 0 0 0 0 0 0 0 0 0 0 0 0
0 0 0 0 0 0 0 0 0 0 0 0 0 0 0 0 0 0 0 0 0 0 0 0 0 0 0 0 0 0 0 0 0 0 0 0 0 0 0 0 0 0 -0 0
0 0 0 0 0 0 0 0 0 0 0 0 0 0 0 0 0 0 0 0 0 0 0 0 0 0 0 0 0 0 0 0 0 0 0 0 0 0 0 0 0 0 0 -0
0 0 0 0 0 0 0 0 0 0 0 0 0 0 0 0 0 0 0 0 0 0 0 0 0 0 0 0 0 0 0 0 0 0 0 0 0 0 0 0 0 0 0 -0
0 0 0 0 0 0 0 0 0 0 0 0 0 0 0 0 0 0 0 -0 -0 -0 -0 0 0 0 0 0 0 0 0 0 0 0 0 0 0 0 0 0 0 0 0 -0
0 0 0 0 0 0 0 0 0 0 0 0 0 0 0 0 0 0 -0 -0 -0 -0 -0 0 0 0 0 0 0 0 0 0 0 0 0 0 0 0 0 0 0 0 0 -0
0 0 0 0 0 0 0 0 0 0 0 0 0 0 0 0 0 0 0 0 0 0 0 0 0 0 0 0 0 0 0 0 0 0 0 0 0 0 0 0 0 0 0 0
0 0 0 0 0 0 0 0 0 0 0 0 0 0 0 0 0 0 0 0 0 0 0 0 0 0 0 0 0 0 0 0 0 0 0 0 0 0 0 0 0 0 0 0
0 0 0 0 0 0 0 0 0 0 0 0 0 0 0 0 0 0 0 0 0 0 0 0 0 0 0 0 0 0 0 0 0 0 0 0 0 0 0 0 0 0 0 0
0 0 0 0 0 0 0 0 0 0 0 0 0 0 0 0 0 0 0 0 0 0 0 0 0 0 0 0 0 0 0 0 0 0 0 0 0 0 0 0 0 0 0 0
0 0 0 0 0 0 0 0 0 0 0 0 0 0 0 0 0 0 0 0 0 0 0 0 0 0 0 0 0 0 0 0 0 0 0 0 0 0 0 0 0 0 0 0
0 0 0 0 0 0 0 0 0 0 0 0 0 0 0 0 0 0 0 0 0 0 0 0 0 0 0 0 0 0 0 0 0 0 0 0 0 0 0 0 0 0 0 0
0 0 0 0 0 0 0 0 0 0 0 0 0 0 0 0 0 0 0 0 0 0 0 0 0 0 0 0 0 0 0 0 0 0 0 0 0 0 0 0 0 0 0 0
0 0 0 0 0 0 0 0 0 0 0 0 0 0 0 0 0 0 0 0 0 0 0 0 0 0 0 0 0 -0 -0 0 0 0 0 0 0 0 0 0 0 0 0 0
0 0 0 0 0 0 0 0 0 0 0 0 0 0 0 0 0 0 0 0 0 0 0 0 0 0 0 0 0 -0 -0 0 0 0 0 0 0 0 0 0 0 0 0 0
0 0 0 0 0 0 0 0 0 0 0 0 0 0 0 0 0 0 0 0 0 0 0 0 0 0 0 0 0 0 -0 0 0 0 0 0 0 0 0 0 0 0 0 0
Wind_Speed_500mb
16 8 17 18 22 19 8 12 13 5 7 1 13 28 34 32 40 32 33 15 12 17 22 26 21 27 33 32 28 24 20 18 16 10 13 17 16 15 13 12 14 17 19 16
7 20 18 14 11 18 5 10 13 11 7 1 13 30 46 27 19 3 23 21 26 25 20 26 33 34 33 30 25 23 19 18 12 10 11 16 11 11 11 7 11 18 14 14
12 3 5 12 7 8 12 13 10 8 3 18 13 16 10 5 14 17 12 20 19 24 30 29 33 33 32 28 24 21 18 17 7 10 11 10 4 6 4 5 13 13 10 10
14 9 10 9 11 14 10 3 9 3 4 5 4 9 15 3 11 12 23 18 23 25 24 30 31 33 30 28 24 22 19 14 8 9 10 5 1 4 4 4 6 8 8 11
8 11 12 8 6 19 4 4 8 6 5 7 9 2 14 5 12 8 17 23 25 26 27 31 34 32 31 29 26 22 18 12 9 8 9 2 5 5 3 2 7 8 8 8
5 5 2 2 8 10 15 10 10 6 4 1 14 11 10 5 5 7 15 21 23 25 26 27 31 32 32 28 25 21 17 12 10 8 8 5 7 5 3 3 6 6 5 7
7 5 3 2 10 5 3 9 5 5 3 10 2 4 13 7 7 4 3 25 21 22 27 30 35 37 30 27 24 20 17 11 10 8 7 7 8 6 6 3 3 3 2 3
13 6 17 11 3 11 13 8 8 13 7 6 4 11 9 6 10 4 8 14 21 19 24 28 30 32 27 24 22 19 17 13 11 10 8 8 9 8 7 7 3 3 6 2
12 8 5 8 6 1 10 8 3 11 4 5 9 10 8 13 14 19 14 12 14 17 20 26 27 28 26 23 22 18 18 16 13 12 10 9 10 10 7 8 5 4 3 6
10 8 5 3 1 3 2 1 7 4 6 7 7 6 10 12 14 14 15 20 10 10 15 20 24 26 25 21 21 20 19 17 16 14 11 10 11 11 7 6 5 6 6 5
9 6 2 1 11 13 5 4 6 5 5 8 4 6 9 18 16 14 14 20 20 11 9 17 21 24 25 24 23 21 21 21 18 16 13 11 13 13 10 7 5 4 5 4
12 10 8 9 2 6 8 7 13 7 9 2 5 6 14 17 14 21 18 17 14 12 5 8 16 24 28 30 28 26 25 24 20 20 15 12 15 17 15 11 9 7 6 6
17 8 8 6 3 4 9 10 7 7 4 10 10 8 7 16 8 13 10 18 16 11 10 4 11 23 29 33 34 33 31 27 25 23 17 14 15 19 17 14 10 10 10 11
14 6 10 11 6 11 11 13 17 10 6 9 10 5 9 11 8 8 6 5 9 12 12 9 7 13 24 31 36 36 36 33 30 27 21 15 15 20 19 16 11 10 11 13
5 9 8 3 9 7 7 9 19 18 14 13 10 14 8 11 8 11 8 7 7 11 13 14 13 12 17 27 36 38 36 36 33 31 25 17 16 21 23 19 14 11 14 17
4 5 6 4 5 8 4 10 9 3 4 8 2 8 12 9 19 16 11 10 13 18 19 16 14 16 16 18 25 35 39 35 36 33 28 20 18 20 24 21 17 12 14 18
14 11 6 6 1 4 10 20 18 11 10 17 18 23 5 5 12 20 14 15 19 26 31 31 24 17 15 20 24 25 34 36 37 36 31 23 18 20 23 23 18 14 16 17
16 11 5 6 4 2 10 1 15 18 15 21 12 11 14 18 28 19 15 16 18 23 29 33 35 27 20 19 19 23 23 33 35 36 33 26 21 21 23 23 16 15 17 18
8 9 8 9 7 6 5 7 14 16 16 29 29 14 15 39 35 19 15 19 22 26 30 35 37 42 37 29 21 11 16 21 31 34 32 28 21 24 25 19 17 19 20 24
12 9 7 5 9 14 5 12 23 8 10 15 29 16 23 43 9 6 15 21 25 27 33 36 39 41 42 45 34 21 7 15 23 32 29 28 22 25 27 22 20 24 25 29
9 6 10 8 5 10 9 14 21 12 9 19 30 34 42 11 14 36 25 26 30 34 38 38 41 45 49 45 43 36 21 11 14 26 31 31 25 24 30 27 25 30 31 32
14 15 10 12 13 18 25 12 14 10 28 35 33 41 44 48 46 38 30 27 25 29 33 38 42 45 47 51 49 46 40 23 16 22 29 31 28 26 33 32 31 38 39 34
8 11 12 15 10 3 44 9 22 29 42 34 45 43 54 51 42 33 28 24 25 27 30 33 38 40 43 45 45 48 46 41 23 18 27 29 32 31 33 36 36 42 43 43
5 2 8 10 5 9 21 20 30 31 45 43 47 52 50 49 38 32 25 23 21 21 23 26 31 39 44 45 44 43 42 40 35 19 21 29 30 32 34 41 41 42 47 48
9 12 11 4 3 10 12 21 33 37 41 46 46 45 44 41 33 25 20 16 14 14 15 19 25 29 38 44 44 41 38 38 34 31 18 23 30 31 34 40 43 44 41 47
9 11 9 9 24 11 19 32 39 45 51 55 58 50 39 30 26 19 12 7 5 10 17 22 24 27 29 35 40 41 36 35 35 30 24 20 30 31 32 37 43 46 47 48
Wind_Direction_500mb
191 185 206 192 216 262 17 330 312 330 120 333 256 278 282 269 274 270 256 141 145 144 172 176 189 186 184 202 204 204 214 225 238 269 290 309 333 329 339 355 357 10 24 30
127 233 216 229 212 225 188 270 274 260 83 160 282 293 279 281 260 205 135 148 156 161 174 179 177 179 190 198 194 195 204 219 243 278 308 310 318 324 325 7 23 26 40 23
174 162 172 147 156 164 217 220 248 288 314 228 285 274 270 113 112 122 122 138 169 169 168 168 167 172 183 190 188 191 203 224 237 272 302 310 347 328 293 17 38 23 39 26
249 165 152 157 199 182 226 239 231 38 341 280 212 284 318 138 167 152 153 161 154 163 164 167 170 169 183 186 186 193 210 233 237 271 302 320 341 287 304 321 44 23 33 32
224 158 161 170 188 175 166 99 116 163 227 10 239 205 261 174 68 85 157 155 151 164 170 171 169 178 185 192 190 196 215 232 245 275 298 250 233 263 238 334 47 30 30 31
72 334 284 78 54 39 138 98 73 59 60 345 236 170 285 61 35 70 111 133 144 160 168 175 179 182 194 192 196 204 218 228 245 274 287 235 240 221 193 58 52 16 21 17
136 160 73 226 89 37 229 128 28 354 18 224 58 85 250 68 50 10 0 144 153 165 171 181 187 191 197 193 201 212 229 230 250 268 280 239 234 212 198 190 77 338 320 22
153 238 172 175 209 186 184 177 166 196 189 201 76 231 262 72 41 174 85 99 147 163 177 193 200 199 202 195 205 219 237 244 253 267 272 233 225 221 214 226 154 339 318 267
161 177 38 17 14 3 192 194 161 102 47 57 207 238 43 69 57 80 81 115 151 169 187 199 206 203 210 208 211 223 238 251 256 267 274 238 217 232 227 241 208 113 295 277
181 103 3 76 336 281 237 270 93 339 152 224 292 266 174 101 89 75 55 56 65 180 200 202 207 206 219 215 216 227 243 254 256 263 271 255 221 227 223 247 205 142 135 273
117 101 54 30 209 183 177 202 223 151 160 179 185 259 119 121 107 95 65 55 54 52 219 218 219 222 226 229 223 228 241 256 260 261 265 256 233 220 216 202 226 215 177 221
184 118 148 193 320 9 323 229 182 144 225 147 137 245 129 110 98 89 66 32 20 34 54 225 238 240 236 238 237 233 236 254 261 259 259 256 235 225 216 213 239 245 241 197
180 172 110 17 349 13 218 205 252 89 68 194 144 240 153 125 121 103 57 1 9 13 28 35 234 248 250 249 245 239 237 244 258 257 257 257 239 230 218 221 232 255 253 217
142 125 154 173 147 128 183 201 198 161 139 181 213 146 200 204 182 85 14 17 5 357 347 330 288 262 258 260 253 246 242 238 249 258 256 257 243 230 227 228 232 254 241 226
182 148 101 30 43 104 137 170 185 202 204 184 214 198 191 187 172 156 121 54 13 353 350 339 318 291 271 256 257 255 247 242 243 251 252 253 245 227 230 235 239 242 242 221
264 119 104 63 24 60 132 180 188 162 244 303 223 273 223 259 131 130 94 65 41 20 6 354 331 309 290 280 263 252 248 245 243 244 248 241 241 230 231 232 246 239 228 218
164 140 123 189 118 91 318 194 185 184 194 205 226 222 140 154 103 101 83 71 46 28 21 19 3 334 302 298 287 259 248 241 244 241 243 240 234 227 232 233 233 233 219 212
153 118 84 135 62 208 254 78 178 183 195 214 217 161 133 124 105 96 94 85 55 39 33 28 25 18 354 332 307 267 242 240 237 242 238 241 238 218 228 238 218 220 203 192
134 132 122 142 190 303 140 197 164 174 248 210 212 200 139 133 112 82 94 90 76 58 47 39 31 26 20 9 356 303 249 238 235 237 236 239 239 222 224 230 207 186 190 178
40 71 107 134 153 202 306 160 161 135 282 195 186 179 143 151 138 153 122 99 78 63 50 43 39 34 27 24 15 1 312 249 241 237 233 237 236 233 215 217 206 188 179 175
140 126 169 170 218 283 151 157 149 132 234 138 152 155 156 149 146 140 121 93 74 62 55 47 38 34 30 27 24 18 3 318 228 230 232 226 231 231 220 209 206 193 187 189
157 159 184 194 202 240 141 129 174 162 128 133 132 146 130 126 124 125 114 99 80 62 50 44 37 31 26 23 19 19 17 357 298 228 224 228 226 223 226 211 206 201 198 199
192 185 170 177 188 149 160 147 164 148 143 139 139 143 142 137 131 125 111 95 72 55 44 34 29 26 21 19 13 10 10 11 356 279 226 216 228 224 219 219 220 211 210 211
251 37 138 104 189 140 163 136 155 162 162 161 154 148 148 138 136 127 115 95 77 56 39 25 13 7 7 9 8 4 2 0 1 347 258 208 221 233 229 219 221 228 223 220
190 129 143 74 87 100 163 185 166 166 164 155 149 148 143 141 137 130 113 96 72 47 26 9 359 353 346 348 354 355 353 350 353 353 314 246 213 228 239 232 226 232 237 235
182 161 154 206 182 142 187 178 175 171 167 163 156 148 145 145 137 133 119 89 19 342 330 324 327 326 326 326 337 337 340 337 343 344 338 285 255 225 230 242 236 234 234 236
Wind_Speed_850mb
16 8 17 18 22 19 8 12 13 5 7 1 13 28 34 32 40 32 33 15 12 17 22 26 21 27 33 32 28 24 20 18 16 10 13 17 16 15 13 12 14 17 19 16
7 20 18 14 11 18 5 10 13 11 7 1 13 30 46 27 19 3 23 21 26 25 20 26 33 34 33 30 25 23 19 18 12 10 11 16 11 11 11 7 11 18 14 14
12 3 5 12 7 8 12 13 10 8 3 18 13 16 10 5 14 17 12 20 19 24 30 29 33 33 32 28 24 21 18 17 7 10 11 10 4 6 4 5 13 13 10 10
14 9 10 9 11 14 10 3 9 3 4 5 4 9 15 3 11 12 23 18 23 25 24 30 31 33 30 28 24 22 19 14 8 9 10 5 1 4 4 4 6 8 8 11
8 11 12 8 6 19 4 4 8 6 5 7 9 2 14 5 12 8 17 23 25 26 27 31 34 32 31 29 26 22 18 12 9 8 9 2 5 5 3 2 7 8 8 8
5 5 2 2 8 10 15 10 10 6 4 1 14 11 10 5 5 7 15 21 23 25 26 27 31 32 32 28 25 21 17 12 10 8 8 5 7 5 3 3 6 6 5 7
7 5 3 2 10 5 3 9 5 5 3 10 2 4 13 7 7 4 3 25 21 22 27 30 35 37 30 27 24 20 17 11 10 8 7 7 8 6 6 3 3 3 2 3
13 6 17 11 3 11 13 8 8 13 7 6 4 11 9 6 10 4 8 14 21 19 24 28 30 32 27 24 22 19 17 13 11 10 8 8 9 8 7 7 3 3 6 2
12 8 5 8 6 1 10 8 3 11 4 5 9 10 8 13 14 19 14 12 14 17 20 26 27 28 26 23 22 18 18 16 13 12 10 9 10 10 7 8 5 4 3 6
10 8 5 3 1 3 2 1 7 4 6 7 7 6 10 12 14 14 15 20 10 10 15 20 24 26 25 21 21 20 19 17 16 14 11 10 11 11 7 6 5 6 6 5
9 6 2 1 11 13 5 4 6 5 5 8 4 6 9 18 16 14 14 20 20 11 9 17 21 24 25 24 23 21 21 21 18 16 13 11 13 13 10 7 5 4 5 4
12 10 8 9 2 6 8 7 13 7 9 2 5 6 14 17 14 21 18 17 14 12 5 8 16 24 28 30 28 26 25 24 20 20 15 12 15 17 15 11 9 7 6 6
17 8 8 6 3 4 9 10 7 7 4 10 10 8 7 16 8 13 10 18 16 11 10 4 11 23 29 33 34 33 31 27 25 23 17 14 15 19 17 14 10 10 10 11
14 6 10 11 6 11 11 13 17 10 6 9 10 5 9 11 8 8 6 5 9 12 12 9 7 13 24 31 36 36 36 33 30 27 21 15 15 20 19 16 11 10 11 13
5 9 8 3 9 7 7 9 19 18 14 13 10 14 8 11 8 11 8 7 7 11 13 14 13 12 17 27 36 38 36 36 33 31 25 17 16 21 23 19 14 11 14 17
4 5 6 4 5 8 4 10 9 3 4 8 2 8 12 9 19 16 11 10 13 18 19 16 14 16 16 18 25 35 39 35 36 33 28 20 18 20 24 21 17 12 14 18
14 11 6 6 1 4 10 20 18 11 10 17 18 23 5 5 12 20 14 15 19 26 31 31 24 17 15 20 24 25 34 36 37 36 31 23 18 20 23 23 18 14 16 17
16 11 5 6 4 2 10 1 15 18 15 21 12 11 14 18 28 19 15 16 18 23 29 33 35 27 20 19 19 23 23 33 35 36 33 26 21 21 23 23 16 15 17 18
8 9 8 9 7 6 5 7 14 16 16 29 29 14 15 39 35 19 15 19 22 26 30 35 37 42 37 29 21 11 16 21 31 34 32 28 21 24 25 19 17 19 20 24
12 9 7 5 9 14 5 12 23 8 10 15 29 16 23 43 9 6 15 21 25 27 33 36 39 41 42 45 34 21 7 15 23 32 29 28 22 25 27 22 20 24 25 29
9 6 10 8 5 10 9 14 21 12 9 19 30 34 42 11 14 36 25 26 30 34 38 38 41 45 49 45 43 36 21 11 14 26 31 31 25 24 30 27 25 30 31 32
14 15 10 12 13 18 25 12 14 10 28 35 33 41 44 48 46 38 30 27 25 29 33 38 42 45 47 51 49 46 40 23 16 22 29 31 28 26 33 32 31 38 39 34
8 11 12 15 10 3 44 9 22 29 42 34 45 43 54 51 42 33 28 24 25 27 30 33 38 40 43 45 45 48 46 41 23 18 27 29 32 31 33 36 36 42 43 43
5 2 8 10 5 9 21 20 30 31 45 43 47 52 50 49 38 32 25 23 21 21 23 26 31 39 44 45 44 43 42 40 35 19 21 29 30 32 34 41 41 42 47 48
9 12 11 4 3 10 12 21 33 37 41 46 46 45 44 41 33 25 20 16 14 14 15 19 25 29 38 44 44 41 38 38 34 31 18 23 30 31 34 40 43 44 41 47
9 11 9 9 24 11 19 32 39 45 51 55 58 50 39 30 26 19 12 7 5 10 17 22 24 27 29 35 40 41 36 35 35 30 24 20 30 31 32 37 43 46 47 48
Wind_Direction_850mb
191 185 206 192 216 262 17 330 312 330 120 333 256 278 282 269 274 270 256 141 145 144 172 176 189 186 184 202 204 204 214 225 238 269 290 309 333 329 339 355 357 10 24 30
127 233 216 229 212 225 188 270 274 260 83 160 282 293 279 281 260 205 135 148 156 161 174 179 177 179 190 198 194 195 204 219 243 278 308 310 318 324 325 7 23 26 40 23
174 162 172 147 156 164 217 220 248 288 314 228 285 274 270 113 112 122 122 138 169 169 168 168 167 172 183 190 188 191 203 224 237 272 302 310 347 328 293 17 38 23 39 26
249 165 152 157 199 182 226 239 231 38 341 280 212 284 318 138 167 152 153 161 154 163 164 167 170 169 183 186 186 193 210 233 237 271 302 320 341 287 304 321 44 23 33 32
224 158 161 170 188 175 166 99 116 163 227 10 239 205 261 174 68 85 157 155 151 164 170 171 169 178 185 192 190 196 215 232 245 275 298 250 233 263 238 334 47 30 30 31
72 334 284 78 54 39 138 98 73 59 60 345 236 170 285 61 35 70 111 133 144 160 168 175 179 182 194 192 196 204 218 228 245 274 287 235 240 221 193 58 52 16 21 17
136 160 73 226 89 37 229 128 28 354 18 224 58 85 250 68 50 10 0 144 153 165 171 181 187 191 197 193 201 212 229 230 250 268 280 239 234 212 198 190 77 338 320 22
153 238 172 175 209 186 184 177 166 196 189 201 76 231 262 72 41 174 85 99 147 163 177 193 200 199 202 195 205 219 237 244 253 267 272 233 225 221 214 226 154 339 318 267
161 177 38 17 14 3 192 194 161 102 47 57 207 238 43 69 57 80 81 115 151 169 187 199 206 203 210 208 211 223 238 251 256 267 274 238 217 232 227 241 208 113 295 277
181 103 3 76 336 281 237 270 93 339 152 224 292 266 174 101 89 75 55 56 65 180 200 202 207 206 219 215 216 227 243 254 256 263 271 255 221 227 223 247 205 142 135 273
117 101 54 30 209 183 177 202 223 151 160 179 185 259 119 121 107 95 65 55 54 52 219 218 219 222 226 229 223 228 241 256 260 261 265 256 233 220 216 202 226 215 177 221
184 118 148 193 320 9 323 229 182 144 225 147 137 245 129 110 98 89 66 32 20 34 54 225 238 240 236 238 237 233 236 254 261 259 259 256 235 225 216 213 239 245 241 197
180 172 110 17 349 13 218 205 252 89 68 194 144 240 153 125 121 103 57 1 9 13 28 35 234 248 250 249 245 239 237 244 258 257 257 257 239 230 218 221 232 255 253 217
142 125 154 173 147 128 183 201 198 161 139 181 213 146 200 204 182 85 14 17 5 357 347 330 288 262 258 260 253 246 242 238 249 258 256 257 243 230 227 228 232 254 241 226
182 148 101 30 43 104 137 170 185 202 204 184 214 198 191 187 172 156 121 54 13 353 350 339 318 291 271 256 257 255 247 242 243 251 252 253 245 227 230 235 239 242 242 221
264 119 104 63 24 60 132 180 188 162 244 303 223 273 223 259 131 130 94 65 41 20 6 354 331 309 290 280 263 252 248 245 243 244 248 241 241 230 231 232 246 239 228 218
164 140 123 189 118 91 318 194 185 184 194 205 226 222 140 154 103 101 83 71 46 28 21 19 3 334 302 298 287 259 248 241 244 241 243 240 234 227 232 233 233 233 219 212
153 118 84 135 62 208 254 78 178 183 195 214 217 161 133 124 105 96 94 85 55 39 33 28 25 18 354 332 307 267 242 240 237 242 238 241 238 218 228 238 218 220 203 192
134 132 122 142 190 303 140 197 164 174 248 210 212 200 139 133 112 82 94 90 76 58 47 39 31 26 20 9 356 303 249 238 235 237 236 239 239 222 224 230 207 186 190 178
40 71 107 134 153 202 306 160 161 135 282 195 186 179 143 151 138 153 122 99 78 63 50 43 39 34 27 24 15 1 312 249 241 237 233 237 236 233 215 217 206 188 179 175
140 126 169 170 218 283 151 157 149 132 234 138 152 155 156 149 146 140 121 93 74 62 55 47 38 34 30 27 24 18 3 318 228 230 232 226 231 231 220 209 206 193 187 189
157 159 184 194 202 240 141 129 174 162 128 133 132 146 130 126 124 125 114 99 80 62 50 44 37 31 26 23 19 19 17 357 298 228 224 228 226 223 226 211 206 201 198 199
192 185 170 177 188 149 160 147 164 148 143 139 139 143 142 137 131 125 111 95 72 55 44 34 29 26 21 19 13 10 10 11 356 279 226 216 228 224 219 219 220 211 210 211
251 37 138 104 189 140 163 136 155 162 162 161 154 148 148 138 136 127 115 95 77 56 39 25 13 7 7 9 8 4 2 0 1 347 258 208 221 233 229 219 221 228 223 220
190 129 143 74 87 100 163 185 166 166 164 155 149 148 143 141 137 130 113 96 72 47 26 9 359 353 346 348 354 355 353 350 353 353 314 246 213 228 239 232 226 232 237 235
182 161 154 206 182 142 187 178 175 171 167 163 156 148 145 145 137 133 119 89 19 342 330 324 327 326 326 326 337 337 340 337 343 344 338 285 255 225 230 242 236 234 234 236